Вернуться в каталог

COSMOS 2143 DEB

АктивенPO
NORAD 57723·DEBRIS·🇷🇺 Russia

Запущен May 16, 1991 с Plesetsk Cosmodrome

Loading…

Ближайшие Пролёты (ближайшие 24 часа)

TLE

СвежийSource: Space-Track

Эпоха: Sep 14, 2026, 11:39 UTC

1 57723U 91033L   26257.48548260  .00003027  00000-0  15051-1 0  9994
2 57723  82.8033 270.0600 0197086 208.6158 150.4007 12.65118261145567

Отслеживайте COSMOS 2143 DEB в реальном времени с AllMySat

Download on the App Store